Date String (YYYY-MM-DD hh:mm:ss) UTC,Instrument flags,Ambient pressure (hPa),Sample flow (lpm),Bypass flow (lpm),Sample temperature (°C),Ambient temperature (°C),ASC tube jacket temperature (°C),LED temperature (°C),Box temperature (°C),Sample RH (%),Span deviation,Mass concentration (μg/m³),Mass concentration (μg/m³),Mass concentration (μg/m³)
DateTimeUTC,F1_M11,P_M11,Q1_M11,Q2_M11,T1_M11,T2_M11,T3_M11,T4_M11,T5_M11,U1_M11,ZSPAN_M11,X0_M11,X2_M11,X1_M11
2022-10-28 23:00:00,,0830.4,5.00,0.00,29.4,28.0,00.0,38.1,31.2,08.2,0000.0,0005.47,0003.44,0003.20
2022-10-28 23:01:00,,0830.5,5.00,0.00,29.4,28.0,00.0,38.1,31.2,08.1,0000.0,0005.86,0003.45,0003.20
2022-10-28 23:02:00,,0830.5,4.99,0.00,29.4,28.0,00.0,38.1,31.2,08.1,0000.0,0005.89,0003.47,0003.21
2022-10-28 23:03:00,,0830.4,5.00,0.00,29.4,28.0,00.0,38.1,31.2,08.2,0000.0,0005.95,0003.48,0003.21
2022-10-28 23:04:00,,0830.4,5.01,0.00,29.4,28.1,00.0,38.1,31.2,08.1,0000.0,0006.00,0003.49,0003.21
2022-10-28 23:05:00,,0830.4,5.00,0.00,29.4,28.1,00.0,38.1,31.2,08.1,0000.0,0006.20,0003.49,0003.21
2022-10-28 23:06:00,,0830.4,4.99,0.00,29.4,28.2,00.0,38.2,31.3,08.2,0000.0,0006.29,0003.49,0003.21
2022-10-28 23:07:00,,0830.4,5.00,0.00,29.5,28.2,00.0,38.2,31.3,08.2,0000.0,0006.82,0003.49,0003.21
2022-10-28 23:08:00,,0830.4,5.02,0.00,29.5,28.3,00.0,38.2,31.3,08.2,0000.0,0007.08,0003.50,0003.21
2022-10-28 23:09:00,,0830.4,4.99,0.00,29.5,28.3,00.0,38.2,31.4,08.3,0000.0,0008.29,0003.51,0003.22
2022-10-28 23:10:00,,0830.4,5.00,0.00,29.5,28.3,00.0,38.2,31.4,08.1,0000.0,0008.60,0003.53,0003.23
2022-10-28 23:11:00,,0830.3,4.99,0.00,29.5,28.3,00.0,38.2,31.4,08.1,0000.0,0008.53,0003.53,0003.22
2022-10-28 23:12:00,,0830.3,5.00,0.00,29.5,28.3,00.0,38.2,31.4,08.1,0000.0,0008.28,0003.51,0003.21
2022-10-28 23:13:00,,0830.4,5.02,0.00,29.6,28.3,00.0,38.2,31.4,08.1,0000.0,0008.27,0003.47,0003.19
2022-10-28 23:14:00,,0830.4,5.00,0.00,29.6,28.2,00.0,38.2,31.4,08.1,0000.0,0008.33,0003.45,0003.17
2022-10-28 23:15:00,,0830.3,5.00,0.00,29.6,28.3,00.0,38.3,31.4,08.1,0000.0,0008.42,0003.46,0003.15
2022-10-28 23:16:00,,0830.4,5.00,0.00,29.6,28.3,00.0,38.3,31.4,08.0,0000.0,0008.34,0003.45,0003.14
2022-10-28 23:17:00,,0830.4,5.00,0.00,29.6,28.3,00.0,38.3,31.4,08.0,0000.0,0008.39,0003.46,0003.14
2022-10-28 23:18:00,,0830.4,5.00,0.00,29.6,28.3,00.0,38.3,31.4,07.9,0000.0,0008.44,0003.46,0003.13
2022-10-28 23:19:00,,0830.3,5.01,0.00,29.6,28.3,00.0,38.3,31.4,07.8,0000.0,0008.42,0003.44,0003.12
2022-10-28 23:20:00,,0830.3,5.00,0.00,29.6,28.3,00.0,38.3,31.4,07.8,0000.0,0008.45,0003.43,0003.11
2022-10-28 23:21:00,,0830.3,4.99,0.00,29.6,28.4,00.0,38.3,31.4,07.8,0000.0,0008.46,0003.42,0003.08
2022-10-28 23:22:00,,0830.3,5.00,0.00,29.6,28.4,00.0,38.3,31.4,07.8,0000.0,0008.25,0003.37,0003.06
2022-10-28 23:23:00,,0830.2,5.01,0.00,29.6,28.3,00.0,38.3,31.4,07.9,0000.0,0008.17,0003.34,0003.02
2022-10-28 23:24:00,,0830.2,4.99,0.00,29.7,28.3,00.0,38.4,31.4,07.8,0000.0,0008.09,0003.34,0003.04
2022-10-28 23:25:00,,0830.2,5.00,0.00,29.7,28.4,00.0,38.4,31.5,07.9,0000.0,0008.04,0003.35,0003.06
2022-10-28 23:26:00,,0830.2,5.01,0.00,29.7,28.4,00.0,38.4,31.5,07.8,0000.0,0007.91,0003.32,0003.07
2022-10-28 23:27:00,,0830.2,5.00,0.00,29.7,28.4,00.0,38.4,31.5,07.8,0000.0,0008.26,0003.32,0003.08
2022-10-28 23:28:00,,0830.3,4.99,0.00,29.7,28.4,00.0,38.4,31.5,07.8,0000.0,0008.55,0003.30,0003.06
2022-10-28 23:29:00,,0830.2,5.00,0.00,29.7,28.4,00.0,38.4,31.5,07.8,0000.0,0008.24,0003.29,0003.05
2022-10-28 23:30:00,,0830.2,4.99,0.00,29.7,28.5,00.0,38.4,31.6,07.8,0000.0,0008.07,0003.31,0003.07
2022-10-28 23:31:00,,0830.2,5.02,0.00,29.7,28.5,00.0,38.4,31.6,07.8,0000.0,0006.87,0003.29,0003.05
2022-10-28 23:32:00,,0830.2,5.00,0.00,29.8,28.4,00.0,38.5,31.6,07.8,0000.0,0006.43,0003.29,0003.04
2022-10-28 23:33:00,,0830.3,4.99,0.00,29.8,28.5,00.0,38.5,31.6,07.8,0000.0,0006.58,0003.30,0003.04
2022-10-28 23:34:00,,0830.3,5.00,0.00,29.8,28.5,00.0,38.5,31.6,07.8,0000.0,0006.68,0003.30,0003.03
2022-10-28 23:35:00,,0830.3,4.99,0.00,29.8,28.5,00.0,38.5,31.6,07.8,0000.0,0006.73,0003.29,0003.00
2022-10-28 23:36:00,,0830.2,5.01,0.00,29.8,28.6,00.0,38.5,31.6,07.8,0000.0,0006.67,0003.26,0002.96
2022-10-28 23:37:00,,0830.2,4.99,0.00,29.8,28.6,00.0,38.5,31.7,07.9,0000.0,0006.69,0003.27,0002.93
2022-10-28 23:38:00,,0830.2,5.00,0.00,29.8,28.6,00.0,38.5,31.7,07.9,0000.0,0005.83,0003.25,0002.89
2022-10-28 23:39:00,,0830.2,4.99,0.00,29.9,28.6,00.0,38.5,31.7,07.9,0000.0,0005.18,0003.22,0002.86
2022-10-28 23:40:00,,0830.2,5.02,0.00,29.9,28.7,00.0,38.6,31.7,07.9,0000.0,0005.20,0003.20,0002.83
2022-10-28 23:41:00,,0830.2,4.99,0.00,29.9,28.7,00.0,38.6,31.7,07.9,0000.0,0005.05,0003.18,0002.79
2022-10-28 23:42:00,,0830.2,4.99,0.00,29.9,28.7,00.0,38.6,31.8,07.9,0000.0,0005.15,0003.18,0002.77
2022-10-28 23:43:00,,0830.2,4.99,0.00,29.9,28.7,00.0,38.6,31.8,07.8,0000.0,0004.70,0003.17,0002.75
2022-10-28 23:44:00,,0830.1,5.02,0.00,29.9,28.7,00.0,38.6,31.8,07.8,0000.0,0004.69,0003.16,0002.74
2022-10-28 23:45:00,,0830.2,4.99,0.00,29.9,28.7,00.0,38.6,31.8,07.8,0000.0,0004.93,0003.15,0002.73
2022-10-28 23:46:00,,0830.2,4.99,0.00,30.0,28.7,00.0,38.6,31.7,07.8,0000.0,0004.97,0003.16,0002.73
2022-10-28 23:47:00,,0830.1,4.99,0.00,30.0,28.7,00.0,38.6,31.8,07.8,0000.0,0005.09,0003.17,0002.72
2022-10-28 23:48:00,,0830.1,5.02,0.00,30.0,28.7,00.0,38.7,31.8,07.7,0000.0,0005.11,0003.15,0002.72
2022-10-28 23:49:00,,0830.1,4.99,0.00,30.0,28.7,00.0,38.7,31.8,07.7,0000.0,0005.17,0003.16,0002.71
2022-10-28 23:50:00,,0830.1,4.99,0.00,30.0,28.8,00.0,38.7,31.9,07.8,0000.0,0005.13,0003.15,0002.71
2022-10-28 23:51:00,,0830.1,4.99,0.00,30.0,28.8,00.0,38.7,31.9,07.7,0000.0,0005.18,0003.15,0002.71
2022-10-28 23:52:00,,0830.1,4.99,0.00,30.0,28.8,00.0,38.7,31.9,07.7,0000.0,0005.11,0003.13,0002.70
2022-10-28 23:53:00,,0830.1,5.02,0.00,30.0,28.8,00.0,38.7,31.9,07.7,0000.0,0004.96,0003.10,0002.69
2022-10-28 23:54:00,,0830.1,5.00,0.00,30.1,28.8,00.0,38.7,31.9,07.7,0000.0,0004.95,0003.08,0002.68
2022-10-28 23:55:00,,0830.1,5.00,0.00,30.1,28.8,00.0,38.8,31.9,07.6,0000.0,0004.95,0003.07,0002.67
2022-10-28 23:56:00,,0830.1,4.99,0.00,30.1,28.8,00.0,38.8,31.9,07.6,0000.0,0004.67,0003.09,0002.67
2022-10-28 23:57:00,,0830.1,5.02,0.00,30.1,28.8,00.0,38.8,31.9,07.6,0000.0,0005.12,0003.07,0002.65
2022-10-28 23:58:00,,0830.2,5.00,0.00,30.1,28.8,00.0,38.8,31.9,07.6,0000.0,0005.48,0003.07,0002.64
2022-10-28 23:59:00,,0830.2,4.99,0.00,30.1,28.8,00.0,38.8,31.9,07.5,0000.0,0005.66,0003.12,0002.64
